When you browse on this site, cookies collect data to enhance your experience and personalize the content and advertising you see.
Visit our Privacy Policy to learn more. By continuing to use the site, you agree to this use of cookies and data.
  • In Latvia
  • List of Countries
  • For 7 days
  • Water Temperature
  • Satellite Maps
  • Weather Map
  • Weather Widgets
  • user-avatar
    Login

    Hourly Weather Gold Coast

    Today, 20 February, Wednesday

    Time Temperature Precipitation Wind Pressure Humidity
    00:00 +23°C° 0 mm 1 mps 751 mmHg 93%
    01:00 +23°C° 0 mm 1 mps 751 mmHg 94%
    02:00 +23°C° 0 mm 1 mps 751 mmHg 94%
    03:00 +23°C° 0 mm 2 mps 751 mmHg 94%
    04:00 +23°C° 0 mm 2 mps 751 mmHg 95%
    05:00 +24°C° 0 mm 2 mps 752 mmHg 91%
    06:00 +24°C° 0 mm 3 mps 752 mmHg 87%
    07:00 +25°C° 0 mm 3 mps 752 mmHg 84%
    08:00 +27°C° 0 mm 3 mps 752 mmHg 74%
    09:00 +30°C° 0 mm 4 mps 752 mmHg 63%
    10:00 +33°C° 0 mm 4 mps 753 mmHg 55%
    11:00 +34°C° 0 mm 4 mps 752 mmHg 51%
    12:00 +34°C° 0 mm 4 mps 752 mmHg 46%
    13:00 +35°C° 0 mm 4 mps 752 mmHg 41%
    14:00 +35°C° 0 mm 4 mps 751 mmHg 45%
    15:00 +34°C° 0 mm 5 mps 751 mmHg 48%
    16:00 +33°C° 0 mm 5 mps 750 mmHg 51%
    17:00 +30°C° 0 mm 5 mps 750 mmHg 62%
    18:00 +29°C° 0 mm 5 mps 751 mmHg 72%
    19:00 +27°C° 0 mm 5 mps 751 mmHg 83%
    20:00 +26°C° 0 mm 4 mps 751 mmHg 86%
    21:00 +26°C° 0 mm 4 mps 751 mmHg 88%
    22:00 +26°C° 0 mm 4 mps 752 mmHg 91%
    23:00 +26°C° 0 mm 4 mps 752 mmHg 91%

    Tomorrow, 21 February, Thursday

    Time Temperature Precipitation Wind Pressure Humidity
    00:00 +26°C° 0 mm 4 mps 752 mmHg 90%
    01:00 +26°C° 0 mm 4 mps 752 mmHg 89%
    02:00 +26°C° 0.1 mm 4 mps 752 mmHg 90%
    03:00 +26°C° 0.1 mm 4 mps 751 mmHg 90%
    04:00 +26°C° 0.1 mm 4 mps 751 mmHg 91%
    05:00 +26°C° 0.1 mm 5 mps 752 mmHg 89%
    06:00 +27°C° 0.1 mm 5 mps 752 mmHg 86%
    07:00 +27°C° 0.1 mm 5 mps 752 mmHg 84%
    08:00 +28°C° 0.1 mm 6 mps 752 mmHg 78%
    09:00 +29°C° 0.1 mm 6 mps 752 mmHg 71%
    10:00 +32°C° 0.1 mm 7 mps 753 mmHg 65%
    11:00 +32°C° 0 mm 7 mps 752 mmHg 62%
    12:00 +33°C° 0 mm 7 mps 752 mmHg 58%
    13:00 +34°C° 0 mm 7 mps 752 mmHg 55%
    14:00 +33°C° 0 mm 8 mps 751 mmHg 55%
    15:00 +33°C° 0 mm 8 mps 751 mmHg 56%
    16:00 +33°C° 0 mm 8 mps 751 mmHg 56%
    17:00 +31°C° 0 mm 8 mps 751 mmHg 61%
    18:00 +29°C° 0 mm 8 mps 751 mmHg 65%
    19:00 +28°C° 0 mm 8 mps 752 mmHg 70%
    20:00 +27°C° 0 mm 8 mps 752 mmHg 73%
    21:00 +27°C° 0 mm 8 mps 752 mmHg 75%
    22:00 +27°C° 0 mm 9 mps 753 mmHg 78%
    23:00 +26°C° 0.2 mm 9 mps 753 mmHg 79%

    Day after tomorrow, 22 February, Friday

    Time Temperature Precipitation Wind Pressure Humidity
    00:00 +26°C° 0.2 mm 9 mps 752 mmHg 80%
    01:00 +26°C° 0.2 mm 9 mps 752 mmHg 80%
    02:00 +26°C° 0.4 mm 9 mps 752 mmHg 81%
    03:00 +26°C° 0.4 mm 9 mps 752 mmHg 81%
    04:00 +24°C° 0.4 mm 9 mps 751 mmHg 82%
    05:00 +24°C° 0.2 mm 10 mps 752 mmHg 81%
    06:00 +24°C° 0.2 mm 10 mps 752 mmHg 80%
    07:00 +24°C° 0.2 mm 11 mps 752 mmHg 79%
    08:00 +26°C° 0.2 mm 11 mps 753 mmHg 78%
    09:00 +26°C° 0.2 mm 11 mps 753 mmHg 77%
    10:00 +26°C° 0.2 mm 11 mps 753 mmHg 76%
    11:00 +26°C° 0.1 mm 12 mps 753 mmHg 71%
    12:00 +27°C° 0.1 mm 12 mps 752 mmHg 67%
    13:00 +28°C° 0.1 mm 12 mps 752 mmHg 62%
    14:00 +27°C° 0.1 mm 12 mps 752 mmHg 63%
    15:00 +27°C° 0.1 mm 12 mps 752 mmHg 63%
    16:00 +27°C° 0.1 mm 12 mps 751 mmHg 63%
    17:00 +26°C° 0.1 mm 12 mps 752 mmHg 64%
    18:00 +26°C° 0.1 mm 12 mps 752 mmHg 65%
    19:00 +26°C° 0.1 mm 12 mps 753 mmHg 66%
    20:00 +26°C° 0.1 mm 12 mps 753 mmHg 67%
    21:00 +26°C° 0.1 mm 12 mps 753 mmHg 67%
    22:00 +26°C° 0.1 mm 12 mps 753 mmHg 67%
    23:00 +24°C° 0.3 mm 12 mps 753 mmHg 69%

    23 February, Saturday

    Time Temperature Precipitation Wind Pressure Humidity
    00:00 +24°C° 0.3 mm 12 mps 753 mmHg 71%
    01:00 +24°C° 0.3 mm 12 mps 752 mmHg 73%
    02:00 +23°C° 0.8 mm 12 mps 752 mmHg 76%
    03:00 +23°C° 0.8 mm 12 mps 752 mmHg 79%
    04:00 +23°C° 0.8 mm 12 mps 751 mmHg 82%
    05:00 +23°C° 0.4 mm 12 mps 752 mmHg 79%
    06:00 +23°C° 0.4 mm 12 mps 752 mmHg 76%
    07:00 +23°C° 0.4 mm 12 mps 753 mmHg 74%
    08:00 +24°C° 0.1 mm 12 mps 753 mmHg 70%
    09:00 +26°C° 0.1 mm 12 mps 753 mmHg 65%
    10:00 +26°C° 0.1 mm 13 mps 753 mmHg 61%
    11:00 +26°C° 0.2 mm 13 mps 753 mmHg 64%
    12:00 +26°C° 0.2 mm 13 mps 753 mmHg 68%
    13:00 +24°C° 0.2 mm 13 mps 753 mmHg 71%
    14:00 +24°C° 0.2 mm 13 mps 753 mmHg 69%
    15:00 +24°C° 0.2 mm 13 mps 752 mmHg 68%
    16:00 +24°C° 0.2 mm 13 mps 752 mmHg 67%
    17:00 +24°C° 0.1 mm 13 mps 753 mmHg 66%
    18:00 +24°C° 0.1 mm 13 mps 754 mmHg 66%
    19:00 +24°C° 0.1 mm 13 mps 754 mmHg 65%
    20:00 +24°C° 0 mm 13 mps 754 mmHg 65%
    21:00 +24°C° 0 mm 13 mps 755 mmHg 66%
    22:00 +24°C° 0 mm 13 mps 755 mmHg 66%
    23:00 +24°C° 0.1 mm 13 mps 755 mmHg 67%

    24 February, Sunday

    Time Temperature Precipitation Wind Pressure Humidity
    00:00 +24°C° 0.1 mm 13 mps 754 mmHg 67%
    01:00 +24°C° 0.1 mm 13 mps 754 mmHg 68%
    02:00 +24°C° 0.1 mm 13 mps 754 mmHg 68%
    03:00 +24°C° 0.1 mm 13 mps 754 mmHg 69%
    04:00 +23°C° 0.1 mm 13 mps 754 mmHg 69%
    05:00 +24°C° 0.1 mm 13 mps 754 mmHg 69%
    06:00 +24°C° 0.1 mm 13 mps 755 mmHg 68%
    07:00 +24°C° 0.1 mm 13 mps 756 mmHg 67%
    08:00 +24°C° 0.1 mm 12 mps 756 mmHg 67%
    09:00 +24°C° 0.1 mm 12 mps 756 mmHg 68%
    10:00 +23°C° 0.1 mm 12 mps 757 mmHg 69%
    11:00 +24°C° 0.1 mm 12 mps 757 mmHg 68%
    12:00 +24°C° 0.1 mm 12 mps 757 mmHg 68%
    13:00 +24°C° 0.1 mm 12 mps 756 mmHg 68%
    14:00 +24°C° 0.1 mm 12 mps 756 mmHg 66%
    15:00 +24°C° 0.1 mm 12 mps 756 mmHg 64%
    16:00 +26°C° 0.1 mm 12 mps 756 mmHg 63%
    17:00 +24°C° 0.1 mm 12 mps 757 mmHg 65%
    18:00 +24°C° 0.1 mm 11 mps 757 mmHg 67%
    19:00 +23°C° 0.1 mm 11 mps 758 mmHg 69%
    20:00 +23°C° 0.1 mm 11 mps 758 mmHg 69%
    21:00 +23°C° 0.1 mm 11 mps 758 mmHg 70%
    22:00 +23°C° 0.1 mm 10 mps 759 mmHg 70%
    23:00 +23°C° 0.1 mm 10 mps 758 mmHg 71%

    25 February, Monday

    Time Temperature Precipitation Wind Pressure Humidity
    00:00 +22°C° 0.1 mm 10 mps 758 mmHg 71%
    01:00 +22°C° 0.1 mm 10 mps 758 mmHg 72%
    02:00 +22°C° 0.1 mm 10 mps 758 mmHg 72%
    03:00 +22°C° 0.1 mm 10 mps 758 mmHg 71%
    04:00 +22°C° 0.1 mm 10 mps 757 mmHg 71%
    05:00 +23°C° 0.1 mm 10 mps 758 mmHg 69%
    06:00 +23°C° 0.1 mm 10 mps 758 mmHg 67%
    07:00 +23°C° 0.1 mm 10 mps 759 mmHg 65%
    08:00 +24°C° 0.1 mm 10 mps 759 mmHg 61%
    09:00 +27°C° 0.1 mm 10 mps 759 mmHg 56%
    10:00 +28°C° 0.1 mm 9 mps 759 mmHg 52%
    11:00 +28°C° 0.1 mm 9 mps 759 mmHg 52%
    12:00 +28°C° 0.1 mm 9 mps 759 mmHg 52%
    13:00 +28°C° 0.1 mm 9 mps 758 mmHg 53%
    14:00 +27°C° 0.1 mm 9 mps 758 mmHg 54%
    15:00 +27°C° 0.1 mm 9 mps 758 mmHg 55%
    16:00 +27°C° 0.1 mm 9 mps 758 mmHg 57%
    17:00 +26°C° 0.1 mm 8 mps 759 mmHg 62%
    18:00 +24°C° 0.1 mm 8 mps 759 mmHg 68%
    19:00 +23°C° 0.1 mm 7 mps 760 mmHg 73%
    20:00 +22°C° 0.1 mm 7 mps 760 mmHg 74%
    21:00 +22°C° 0.1 mm 7 mps 760 mmHg 75%
    22:00 +22°C° 0.1 mm 7 mps 760 mmHg 76%
    23:00 +22°C° 0.1 mm 7 mps 760 mmHg 78%
    Show more